History for Miami, FL

Tuesday, February 26, 2013 — View Current Conditions

Jump to Data:

Date:
Airport Code:
Recently Viewed Airport Codes: KMIA
Daily Summary
  Actual Average Record
Temperature
Mean Temperature 81°F 71°F  
Max Temperature 86°F 79°F 88°F (1897)
Min Temperature 76°F 63°F 36°F (1967)
Degree Days
Heating Degree Days 0 1  
Month to date heating degree days 16 26  
Since 1 July heating degree days 36 116  
Cooling Degree Days 16 7  
Month to date cooling degree days 200 157  
Year to date cooling degree days 469 308  
Growing Degree Days 30 (Base 50)    
Moisture
Dew Point 71°F    
Average Humidity 74    
Maximum Humidity 88    
Minimum Humidity 59    
Precipitation
Precipitation T in 0.08 in 0.89 in (1924)
Month to date precipitation 1.74 2.08  
Year to date precipitation 2.28 3.70  
Snow
Snow 0.00 in in in ()
Month to date snowfall 0.0  
Since 1 July snowfall 0.0  
Snow Depth 0.00 in    
Sea Level Pressure
Sea Level Pressure 29.87 in    
Wind
Wind Speed 11 mph (South)    
Max Wind Speed 22 mph    
Max Gust Speed 30 mph    
Visibility 10 miles    
Events      
T = Trace of Precipitation, MM = Missing Value Source: NWS Daily Summary

Show full METARS

(help) - Comma Delimited File

Hourly Observations

Time(EST) Temperature Dew Point Humidity Sea Level Pressure Visibility Wind Direction Wind Speed Gust Speed Precipitation Events Conditions
12:32 AM 75.2°F 71.6°F 89% 29.87 in 10.0 miles SE 10.4 mph - N/A   Overcast
12:53 AM 75.9°F 72.0°F 87% 29.87 in 10.0 miles SSE 9.2 mph - N/A   Overcast
1:34 AM 75.2°F 71.6°F 89% 29.86 in 10.0 miles SSE 9.2 mph 16.1 mph N/A   Overcast
1:53 AM 75.9°F 71.1°F 85% 29.85 in 10.0 miles SSE 9.2 mph - N/A   Overcast
2:53 AM 75.9°F 72.0°F 87% 29.83 in 8.0 miles SSE 11.5 mph - N/A   Overcast
3:53 AM 75.9°F 71.1°F 85% 29.82 in 8.0 miles South 11.5 mph 19.6 mph N/A   Mostly Cloudy
4:53 AM 75.9°F 71.1°F 85% 29.83 in 8.0 miles South 10.4 mph 20.7 mph N/A   Mostly Cloudy
5:01 AM 75.2°F 71.6°F 89% 29.83 in 10.0 miles South 10.4 mph 17.3 mph N/A   Mostly Cloudy
5:53 AM 75.9°F 71.1°F 85% 29.83 in 10.0 miles South 5.8 mph - N/A   Mostly Cloudy
6:53 AM 75.9°F 71.1°F 85% 29.85 in 9.0 miles South 9.2 mph - N/A   Mostly Cloudy
7:02 AM 77.0°F 71.6°F 83% 29.85 in 10.0 miles SSE 11.5 mph 19.6 mph N/A   Mostly Cloudy
7:53 AM 77.0°F 71.1°F 82% 29.88 in 10.0 miles South 8.1 mph - N/A   Mostly Cloudy
8:13 AM 78.8°F 71.6°F 78% 29.88 in 10.0 miles South 9.2 mph - N/A   Mostly Cloudy
8:27 AM 78.8°F 71.6°F 78% 29.88 in 10.0 miles South 15.0 mph 23.0 mph N/A   Mostly Cloudy
8:53 AM 81.0°F 70.0°F 69% 29.88 in 10.0 miles SSE 12.7 mph 20.7 mph N/A   Scattered Clouds
9:53 AM 82.0°F 70.0°F 67% 29.90 in 10.0 miles SSE 13.8 mph 21.9 mph N/A   Mostly Cloudy
10:53 AM 80.1°F 70.0°F 71% 29.91 in 10.0 miles South 13.8 mph 21.9 mph N/A   Mostly Cloudy
11:53 AM 82.0°F 71.1°F 69% 29.91 in 10.0 miles SSE 13.8 mph 20.7 mph N/A   Mostly Cloudy
12:53 PM 84.0°F 68.0°F 58% 29.91 in 10.0 miles South 16.1 mph 24.2 mph 0.00 in   Overcast
1:53 PM 84.9°F 68.0°F 57% 29.88 in 10.0 miles SSW 12.7 mph 29.9 mph N/A   Mostly Cloudy
2:53 PM 84.0°F 68.0°F 58% 29.85 in 10.0 miles SSW 17.3 mph 25.3 mph N/A   Mostly Cloudy
3:53 PM 82.9°F 69.1°F 63% 29.85 in 10.0 miles SSW 13.8 mph 24.2 mph N/A   Overcast
4:53 PM 82.0°F 69.1°F 65% 29.86 in 10.0 miles SW 11.5 mph - N/A   Overcast
5:53 PM 82.0°F 70.0°F 67% 29.87 in 10.0 miles SSW 12.7 mph - N/A   Mostly Cloudy
6:53 PM 80.1°F 70.0°F 71% 29.88 in 10.0 miles SW 5.8 mph - N/A   Mostly Cloudy
7:53 PM 78.1°F 71.1°F 79% 29.90 in 10.0 miles South 5.8 mph - N/A   Mostly Cloudy
8:53 PM 77.0°F 72.0°F 84% 29.92 in 10.0 miles South 5.8 mph - N/A   Scattered Clouds
9:53 PM 77.0°F 73.0°F 88% 29.92 in 10.0 miles South 8.1 mph - N/A   Scattered Clouds
10:53 PM 77.0°F 73.0°F 88% 29.92 in 10.0 miles SSW 8.1 mph - N/A   Scattered Clouds
11:53 PM 77.0°F 72.0°F 84% 29.91 in 10.0 miles SSW 9.2 mph - N/A   Overcast